Location: Lichtensteig
(47.3376°N, 9.0841°E)
Time: 08:06:37
(UTC+00:00)

Meteor 1-25 Rocket - Pass Details

Date: 03 March 2021
Orbit: 835 x 893 km, 81.2° (Epoch: 13 April)

Event Time Altitude Azimuth Distance (km) Brightness Sun altitude
Rises 17:30:01 0° 175° (S) 3,472 7.4 -3.9°
Reaches altitude 10° 17:32:30 10° 171° (S) 2,530 6.7 -4.3°
Maximum altitude 17:38:06 55° 95° (E) 1,041 4.4 -5.2°
Drops below altitude 10° 17:43:39 10° 19° (NNE) 2,511 6.5 -6.2°
Sets 17:46:06 0° 16° (NNE) 3,443 7.2 -6.6°
